Location: Days
(41.3591°N, 106.7339°W)
Time: 01:20:49
(UTC+00:00)

STRAND 1 - Pass Details

Date: 05 July 2022
Orbit: 767 x 781 km, 98.4° (Epoch: 07 August)

Event Time Altitude Azimuth Distance (km) Brightness Sun altitude
Rises 04:00:18 0° 350° (N) 3,265 ? -12.1°
Maximum altitude 04:05:43 10° 303° (WNW) 2,325 ? -12.8°
Drops below altitude 10° 04:05:48 10° 302° (WNW) 2,325 ? -12.8°
Sets 04:11:06 0° 255° (WSW) 3,239 ? -13.4°
